owner,sensor,date,latitude,longitude,vertical_datum,mass_concentration_of_oxygen_in_sea_water,qcFlag 
LUMCON,ioos:station:LUMCON:wisl1:1,2019-07-01T00:00:00Z,29.1144,-90.1840,1.882,8.85,11111222 
LUMCON,ioos:station:LUMCON:wisl1:1,2019-07-01T00:15:00Z,29.1144,-90.1840,1.888,8.9,11111222 
LUMCON,ioos:station:LUMCON:wisl1:1,2019-07-01T00:30:00Z,29.1144,-90.1840,1.88,8.67,11111222 
LUMCON,ioos:station:LUMCON:wisl1:1,2019-07-01T00:45:00Z,29.1144,-90.1840,1.868,8.46,11111222 
LUMCON,ioos:station:LUMCON:wisl1:1,2019-07-01T01:00:00Z,29.1144,-90.1840,1.877,8.45,11111222 
LUMCON,ioos:station:LUMCON:wisl1:1,2019-07-01T01:15:00Z,29.1144,-90.1840,1.881,8.53,11111222 
LUMCON,ioos:station:LUMCON:wisl1:1,2019-07-01T01:30:00Z,29.1144,-90.1840,1.891,8.38,11111222 
LUMCON,ioos:station:LUMCON:wisl1:1,2019-07-01T01:45:00Z,29.1144,-90.1840,1.896,8.13,11111222 
LUMCON,ioos:station:LUMCON:wisl1:1,2019-07-01T02:00:00Z,29.1144,-90.1840,1.906,8.62,11111222 
LUMCON,ioos:station:LUMCON:wisl1:1,2019-07-01T02:15:00Z,29.1144,-90.1840,1.915,8.43,11111222 
LUMCON,ioos:station:LUMCON:wisl1:1,2019-07-01T02:30:00Z,29.1144,-90.1840,1.918,8.41,11111222 
LUMCON,ioos:station:LUMCON:wisl1:1,2019-07-01T02:45:00Z,29.1144,-90.1840,1.935,8.33,11111222 
LUMCON,ioos:station:LUMCON:wisl1:1,2019-07-01T03:00:00Z,29.1144,-90.1840,1.946,7.62,11111222 
LUMCON,ioos:station:LUMCON:wisl1:1,2019-07-01T03:15:00Z,29.1144,-90.1840,1.962,8.17,11111222 
LUMCON,ioos:station:LUMCON:wisl1:1,2019-07-01T03:30:00Z,29.1144,-90.1840,1.988,8.18,11111222 
LUMCON,ioos:station:LUMCON:wisl1:1,2019-07-01T03:45:00Z,29.1144,-90.1840,2.007,8.21,11111222 
LUMCON,ioos:station:LUMCON:wisl1:1,2019-07-01T04:00:00Z,29.1144,-90.1840,2.018,8.07,11111222 
LUMCON,ioos:station:LUMCON:wisl1:1,2019-07-01T04:15:00Z,29.1144,-90.1840,2.034,8.1,11111222 
LUMCON,ioos:station:LUMCON:wisl1:1,2019-07-01T04:30:00Z,29.1144,-90.1840,2.05,8.1,11111222 
LUMCON,ioos:station:LUMCON:wisl1:1,2019-07-01T04:45:00Z,29.1144,-90.1840,2.063,7.93,11111222 
LUMCON,ioos:station:LUMCON:wisl1:1,2019-07-01T05:00:00Z,29.1144,-90.1840,2.079,7.37,11111222 
LUMCON,ioos:station:LUMCON:wisl1:1,2019-07-01T05:15:00Z,29.1144,-90.1840,2.091,7.57,11111222 
LUMCON,ioos:station:LUMCON:wisl1:1,2019-07-01T05:30:00Z,29.1144,-90.1840,2.093,7.76,11111222 
LUMCON,ioos:station:LUMCON:wisl1:1,2019-07-01T05:45:00Z,29.1144,-90.1840,2.106,7.87,11111222 
LUMCON,ioos:station:LUMCON:wisl1:1,2019-07-01T06:00:00Z,29.1144,-90.1840,2.114,7.38,11111222 
LUMCON,ioos:station:LUMCON:wisl1:1,2019-07-01T06:15:00Z,29.1144,-90.1840,2.121,6.83,11111222 
LUMCON,ioos:station:LUMCON:wisl1:1,2019-07-01T06:30:00Z,29.1144,-90.1840,2.146,6.62,11111222 
LUMCON,ioos:station:LUMCON:wisl1:1,2019-07-01T06:45:00Z,29.1144,-90.1840,2.171,6.21,11111222 
LUMCON,ioos:station:LUMCON:wisl1:1,2019-07-01T07:00:00Z,29.1144,-90.1840,2.189,5.7,11111222 
LUMCON,ioos:station:LUMCON:wisl1:1,2019-07-01T07:15:00Z,29.1144,-90.1840,2.205,5.65,11111222 
LUMCON,ioos:station:LUMCON:wisl1:1,2019-07-01T07:30:00Z,29.1144,-90.1840,2.232,5.09,11111222 
LUMCON,ioos:station:LUMCON:wisl1:1,2019-07-01T07:45:00Z,29.1144,-90.1840,2.265,4.92,11111222 
LUMCON,ioos:station:LUMCON:wisl1:1,2019-07-01T08:00:00Z,29.1144,-90.1840,2.288,4.69,11111222 
LUMCON,ioos:station:LUMCON:wisl1:1,2019-07-01T08:15:00Z,29.1144,-90.1840,2.313,4.47,11111222 
LUMCON,ioos:station:LUMCON:wisl1:1,2019-07-01T08:30:00Z,29.1144,-90.1840,2.332,4.55,11111222 
LUMCON,ioos:station:LUMCON:wisl1:1,2019-07-01T08:45:00Z,29.1144,-90.1840,2.348,4.11,11111222 
LUMCON,ioos:station:LUMCON:wisl1:1,2019-07-01T09:00:00Z,29.1144,-90.1840,2.366,4.58,11111222 
LUMCON,ioos:station:LUMCON:wisl1:1,2019-07-01T09:15:00Z,29.1144,-90.1840,2.384,4.33,11111222 
LUMCON,ioos:station:LUMCON:wisl1:1,2019-07-01T09:30:00Z,29.1144,-90.1840,2.398,4.13,11111222 
LUMCON,ioos:station:LUMCON:wisl1:1,2019-07-01T09:45:00Z,29.1144,-90.1840,2.412,4.06,11111222 
LUMCON,ioos:station:LUMCON:wisl1:1,2019-07-01T10:00:00Z,29.1144,-90.1840,2.418,4.19,11111222 
LUMCON,ioos:station:LUMCON:wisl1:1,2019-07-01T10:15:00Z,29.1144,-90.1840,2.435,2.95,11111222 
LUMCON,ioos:station:LUMCON:wisl1:1,2019-07-01T10:30:00Z,29.1144,-90.1840,2.45,4.14,11111222 
LUMCON,ioos:station:LUMCON:wisl1:1,2019-07-01T10:45:00Z,29.1144,-90.1840,2.456,4.12,11111222 
LUMCON,ioos:station:LUMCON:wisl1:1,2019-07-01T11:00:00Z,29.1144,-90.1840,2.475,4.1,11111222 
LUMCON,ioos:station:LUMCON:wisl1:1,2019-07-01T11:15:00Z,29.1144,-90.1840,2.48,4.17,11111222 
LUMCON,ioos:station:LUMCON:wisl1:1,2019-07-01T11:30:00Z,29.1144,-90.1840,2.489,4.23,11111222 
LUMCON,ioos:station:LUMCON:wisl1:1,2019-07-01T11:45:00Z,29.1144,-90.1840,2.498,3.91,11111222 
LUMCON,ioos:station:LUMCON:wisl1:1,2019-07-01T12:00:00Z,29.1144,-90.1840,2.51,3.52,11111222 
LUMCON,ioos:station:LUMCON:wisl1:1,2019-07-01T12:15:00Z,29.1144,-90.1840,2.517,4.1,11111222 
LUMCON,ioos:station:LUMCON:wisl1:1,2019-07-01T12:30:00Z,29.1144,-90.1840,2.523,3.97,11111222 
LUMCON,ioos:station:LUMCON:wisl1:1,2019-07-01T12:45:00Z,29.1144,-90.1840,2.53,3.44,11111222 
LUMCON,ioos:station:LUMCON:wisl1:1,2019-07-01T13:00:00Z,29.1144,-90.1840,2.537,3.62,11111222 
LUMCON,ioos:station:LUMCON:wisl1:1,2019-07-01T13:15:00Z,29.1144,-90.1840,2.533,4.21,11111222 
LUMCON,ioos:station:LUMCON:wisl1:1,2019-07-01T13:30:00Z,29.1144,-90.1840,2.537,3.66,11111222 
LUMCON,ioos:station:LUMCON:wisl1:1,2019-07-01T13:45:00Z,29.1144,-90.1840,2.541,3.97,11111222 
LUMCON,ioos:station:LUMCON:wisl1:1,2019-07-01T14:00:00Z,29.1144,-90.1840,2.543,3.93,11111222 
LUMCON,ioos:station:LUMCON:wisl1:1,2019-07-01T14:15:00Z,29.1144,-90.1840,2.545,3.36,11111222 
LUMCON,ioos:station:LUMCON:wisl1:1,2019-07-01T14:30:00Z,29.1144,-90.1840,2.544,4.32,11111222 
LUMCON,ioos:station:LUMCON:wisl1:1,2019-07-01T14:45:00Z,29.1144,-90.1840,2.54,4.18,11111222 
LUMCON,ioos:station:LUMCON:wisl1:1,2019-07-01T15:00:00Z,29.1144,-90.1840,2.537,4.47,11111222 
LUMCON,ioos:station:LUMCON:wisl1:1,2019-07-01T15:15:00Z,29.1144,-90.1840,2.534,3.88,11111222 
LUMCON,ioos:station:LUMCON:wisl1:1,2019-07-01T15:30:00Z,29.1144,-90.1840,2.523,4.27,11111222 
LUMCON,ioos:station:LUMCON:wisl1:1,2019-07-01T15:45:00Z,29.1144,-90.1840,2.513,4.89,11111222 
LUMCON,ioos:station:LUMCON:wisl1:1,2019-07-01T16:00:00Z,29.1144,-90.1840,2.492,4.22,11111222 
LUMCON,ioos:station:LUMCON:wisl1:1,2019-07-01T16:15:00Z,29.1144,-90.1840,2.472,4.69,11111222 
LUMCON,ioos:station:LUMCON:wisl1:1,2019-07-01T16:30:00Z,29.1144,-90.1840,2.459,4.03,11111222 
LUMCON,ioos:station:LUMCON:wisl1:1,2019-07-01T16:45:00Z,29.1144,-90.1840,2.455,4.17,11111222 
LUMCON,ioos:station:LUMCON:wisl1:1,2019-07-01T17:00:00Z,29.1144,-90.1840,2.438,4.46,11111222 
LUMCON,ioos:station:LUMCON:wisl1:1,2019-07-01T17:15:00Z,29.1144,-90.1840,2.412,4.52,11111222 
LUMCON,ioos:station:LUMCON:wisl1:1,2019-07-01T17:30:00Z,29.1144,-90.1840,2.397,4.64,11111222 
LUMCON,ioos:station:LUMCON:wisl1:1,2019-07-01T17:45:00Z,29.1144,-90.1840,2.371,4.98,11111222 
LUMCON,ioos:station:LUMCON:wisl1:1,2019-07-01T18:00:00Z,29.1144,-90.1840,2.352,4.88,11111222 
LUMCON,ioos:station:LUMCON:wisl1:1,2019-07-01T18:15:00Z,29.1144,-90.1840,2.335,4.83,11111222 
LUMCON,ioos:station:LUMCON:wisl1:1,2019-07-01T18:30:00Z,29.1144,-90.1840,2.305,4.89,11111222 
LUMCON,ioos:station:LUMCON:wisl1:1,2019-07-01T18:45:00Z,29.1144,-90.1840,2.266,4.9,11111222 
LUMCON,ioos:station:LUMCON:wisl1:1,2019-07-01T19:00:00Z,29.1144,-90.1840,2.251,5.12,11111222 
LUMCON,ioos:station:LUMCON:wisl1:1,2019-07-01T19:15:00Z,29.1144,-90.1840,2.221,5.45,11111222 
LUMCON,ioos:station:LUMCON:wisl1:1,2019-07-01T19:30:00Z,29.1144,-90.1840,2.193,5.54,11111222 
LUMCON,ioos:station:LUMCON:wisl1:1,2019-07-01T19:45:00Z,29.1144,-90.1840,2.173,5.94,11111222 
LUMCON,ioos:station:LUMCON:wisl1:1,2019-07-01T20:00:00Z,29.1144,-90.1840,2.163,6.26,11111222 
LUMCON,ioos:station:LUMCON:wisl1:1,2019-07-01T20:15:00Z,29.1144,-90.1840,2.133,6.39,11111222 
LUMCON,ioos:station:LUMCON:wisl1:1,2019-07-01T20:30:00Z,29.1144,-90.1840,2.111,6.52,11111222 
LUMCON,ioos:station:LUMCON:wisl1:1,2019-07-01T20:45:00Z,29.1144,-90.1840,2.089,6.64,11111222 
LUMCON,ioos:station:LUMCON:wisl1:1,2019-07-01T21:00:00Z,29.1144,-90.1840,2.078,6.6,11111222 
LUMCON,ioos:station:LUMCON:wisl1:1,2019-07-01T21:15:00Z,29.1144,-90.1840,2.063,6.63,11111222 
LUMCON,ioos:station:LUMCON:wisl1:1,2019-07-01T21:30:00Z,29.1144,-90.1840,2.047,6.86,11111222 
LUMCON,ioos:station:LUMCON:wisl1:1,2019-07-01T21:45:00Z,29.1144,-90.1840,2.019,7.25,11111222 
LUMCON,ioos:station:LUMCON:wisl1:1,2019-07-01T22:00:00Z,29.1144,-90.1840,1.994,7.2,11111222 
LUMCON,ioos:station:LUMCON:wisl1:1,2019-07-01T22:15:00Z,29.1144,-90.1840,1.983,7.38,11111222 
LUMCON,ioos:station:LUMCON:wisl1:1,2019-07-01T22:30:00Z,29.1144,-90.1840,1.959,7.34,11111222 
LUMCON,ioos:station:LUMCON:wisl1:1,2019-07-01T22:45:00Z,29.1144,-90.1840,1.94,7.42,11111222 
LUMCON,ioos:station:LUMCON:wisl1:1,2019-07-01T23:00:00Z,29.1144,-90.1840,1.932,7.49,11111222 
LUMCON,ioos:station:LUMCON:wisl1:1,2019-07-01T23:15:00Z,29.1144,-90.1840,1.927,7.5,11111222 
LUMCON,ioos:station:LUMCON:wisl1:1,2019-07-01T23:30:00Z,29.1144,-90.1840,1.908,7.52,11111222 
LUMCON,ioos:station:LUMCON:wisl1:1,2019-07-01T23:45:00Z,29.1144,-90.1840,1.901,7.46,11111222 
LUMCON,ioos:station:LUMCON:wisl1:1,2019-07-02T00:00:00Z,29.1144,-90.1840,1.902,7.45,11111222 
LUMCON,ioos:station:LUMCON:wisl1:1,2019-07-02T00:15:00Z,29.1144,-90.1840,1.902,7.41,11111222 
LUMCON,ioos:station:LUMCON:wisl1:1,2019-07-02T00:30:00Z,29.1144,-90.1840,1.903,7.31,11111222 
LUMCON,ioos:station:LUMCON:wisl1:1,2019-07-02T00:45:00Z,29.1144,-90.1840,1.904,7.2,11111222 
LUMCON,ioos:station:LUMCON:wisl1:1,2019-07-02T01:00:00Z,29.1144,-90.1840,1.897,7.11,11111222 
LUMCON,ioos:station:LUMCON:wisl1:1,2019-07-02T01:15:00Z,29.1144,-90.1840,1.896,7.12,11111222 
LUMCON,ioos:station:LUMCON:wisl1:1,2019-07-02T01:30:00Z,29.1144,-90.1840,1.908,6.99,11111222 
LUMCON,ioos:station:LUMCON:wisl1:1,2019-07-02T01:45:00Z,29.1144,-90.1840,1.915,6.89,11111222 
LUMCON,ioos:station:LUMCON:wisl1:1,2019-07-02T02:00:00Z,29.1144,-90.1840,1.927,6.84,11111222 
LUMCON,ioos:station:LUMCON:wisl1:1,2019-07-02T02:15:00Z,29.1144,-90.1840,1.939,6.61,11111222 
LUMCON,ioos:station:LUMCON:wisl1:1,2019-07-02T02:30:00Z,29.1144,-90.1840,1.945,6.45,11111222 
LUMCON,ioos:station:LUMCON:wisl1:1,2019-07-02T02:45:00Z,29.1144,-90.1840,1.952,6.41,11111222 
LUMCON,ioos:station:LUMCON:wisl1:1,2019-07-02T03:00:00Z,29.1144,-90.1840,1.968,6.36,11111222 
LUMCON,ioos:station:LUMCON:wisl1:1,2019-07-02T03:15:00Z,29.1144,-90.1840,1.977,6.57,11111222 
LUMCON,ioos:station:LUMCON:wisl1:1,2019-07-02T03:30:00Z,29.1144,-90.1840,1.986,6.46,11111222 
LUMCON,ioos:station:LUMCON:wisl1:1,2019-07-02T03:45:00Z,29.1144,-90.1840,2.005,6.28,11111222 
LUMCON,ioos:station:LUMCON:wisl1:1,2019-07-02T04:00:00Z,29.1144,-90.1840,2.01,6.22,11111222 
LUMCON,ioos:station:LUMCON:wisl1:1,2019-07-02T04:15:00Z,29.1144,-90.1840,2.021,5.8,11111222 
LUMCON,ioos:station:LUMCON:wisl1:1,2019-07-02T04:30:00Z,29.1144,-90.1840,2.032,6.11,11111222 
LUMCON,ioos:station:LUMCON:wisl1:1,2019-07-02T04:45:00Z,29.1144,-90.1840,2.05,6.31,11111222 
LUMCON,ioos:station:LUMCON:wisl1:1,2019-07-02T05:00:00Z,29.1144,-90.1840,2.059,6.34,11111222 
LUMCON,ioos:station:LUMCON:wisl1:1,2019-07-02T05:15:00Z,29.1144,-90.1840,2.074,6.32,11111222 
LUMCON,ioos:station:LUMCON:wisl1:1,2019-07-02T05:30:00Z,29.1144,-90.1840,2.084,6.25,11111222 
LUMCON,ioos:station:LUMCON:wisl1:1,2019-07-02T05:45:00Z,29.1144,-90.1840,2.102,6.33,11111222 
LUMCON,ioos:station:LUMCON:wisl1:1,2019-07-02T06:00:00Z,29.1144,-90.1840,2.111,6.18,11111222 
LUMCON,ioos:station:LUMCON:wisl1:1,2019-07-02T06:15:00Z,29.1144,-90.1840,2.123,6.17,11111222 
LUMCON,ioos:station:LUMCON:wisl1:1,2019-07-02T06:30:00Z,29.1144,-90.1840,2.147,6.23,11111222 
LUMCON,ioos:station:LUMCON:wisl1:1,2019-07-02T06:45:00Z,29.1144,-90.1840,2.153,6.14,11111222 
LUMCON,ioos:station:LUMCON:wisl1:1,2019-07-02T07:00:00Z,29.1144,-90.1840,2.173,6.15,11111222 
LUMCON,ioos:station:LUMCON:wisl1:1,2019-07-02T07:15:00Z,29.1144,-90.1840,2.178,5.8,11111222 
LUMCON,ioos:station:LUMCON:wisl1:1,2019-07-02T07:30:00Z,29.1144,-90.1840,2.185,5.79,11111222 
LUMCON,ioos:station:LUMCON:wisl1:1,2019-07-02T07:45:00Z,29.1144,-90.1840,2.197,5.83,11111222 
LUMCON,ioos:station:LUMCON:wisl1:1,2019-07-02T08:00:00Z,29.1144,-90.1840,2.215,5.75,11111222 
LUMCON,ioos:station:LUMCON:wisl1:1,2019-07-02T08:15:00Z,29.1144,-90.1840,2.227,4.69,11111222 
LUMCON,ioos:station:LUMCON:wisl1:1,2019-07-02T08:30:00Z,29.1144,-90.1840,2.238,4.49,11111222 
LUMCON,ioos:station:LUMCON:wisl1:1,2019-07-02T08:45:00Z,29.1144,-90.1840,2.252,4.84,11111222 
LUMCON,ioos:station:LUMCON:wisl1:1,2019-07-02T09:00:00Z,29.1144,-90.1840,2.265,4.13,11111222 
LUMCON,ioos:station:LUMCON:wisl1:1,2019-07-02T09:15:00Z,29.1144,-90.1840,2.277,4.9,11111222 
LUMCON,ioos:station:LUMCON:wisl1:1,2019-07-02T09:30:00Z,29.1144,-90.1840,2.294,4.68,11111222 
LUMCON,ioos:station:LUMCON:wisl1:1,2019-07-02T09:45:00Z,29.1144,-90.1840,2.314,5.08,11111222 
LUMCON,ioos:station:LUMCON:wisl1:1,2019-07-02T10:00:00Z,29.1144,-90.1840,2.328,5.52,11111222 
LUMCON,ioos:station:LUMCON:wisl1:1,2019-07-02T10:15:00Z,29.1144,-90.1840,2.343,6.14,11111222 
LUMCON,ioos:station:LUMCON:wisl1:1,2019-07-02T10:30:00Z,29.1144,-90.1840,2.358,6.17,11111222 
LUMCON,ioos:station:LUMCON:wisl1:1,2019-07-02T10:45:00Z,29.1144,-90.1840,2.378,4.45,11111222 
LUMCON,ioos:station:LUMCON:wisl1:1,2019-07-02T11:00:00Z,29.1144,-90.1840,2.39,5.99,11111222 
LUMCON,ioos:station:LUMCON:wisl1:1,2019-07-02T11:15:00Z,29.1144,-90.1840,2.401,6.15,11111222 
LUMCON,ioos:station:LUMCON:wisl1:1,2019-07-02T11:30:00Z,29.1144,-90.1840,2.415,5.53,11111222 
LUMCON,ioos:station:LUMCON:wisl1:1,2019-07-02T11:45:00Z,29.1144,-90.1840,2.428,6.05,11111222 
LUMCON,ioos:station:LUMCON:wisl1:1,2019-07-02T12:00:00Z,29.1144,-90.1840,2.442,6.28,11111222 
LUMCON,ioos:station:LUMCON:wisl1:1,2019-07-02T12:15:00Z,29.1144,-90.1840,2.459,4.41,11111222 
LUMCON,ioos:station:LUMCON:wisl1:1,2019-07-02T12:30:00Z,29.1144,-90.1840,2.467,5.84,11111222 
LUMCON,ioos:station:LUMCON:wisl1:1,2019-07-02T12:45:00Z,29.1144,-90.1840,2.472,5.9,11111222 
LUMCON,ioos:station:LUMCON:wisl1:1,2019-07-02T13:00:00Z,29.1144,-90.1840,2.477,5.73,11111222 
LUMCON,ioos:station:LUMCON:wisl1:1,2019-07-02T13:15:00Z,29.1144,-90.1840,2.483,5.43,11111222 
LUMCON,ioos:station:LUMCON:wisl1:1,2019-07-02T13:30:00Z,29.1144,-90.1840,2.486,5.88,11111222 
LUMCON,ioos:station:LUMCON:wisl1:1,2019-07-02T13:45:00Z,29.1144,-90.1840,2.489,5.99,11111222 
LUMCON,ioos:station:LUMCON:wisl1:1,2019-07-02T14:00:00Z,29.1144,-90.1840,2.49,5.97,11111222 
LUMCON,ioos:station:LUMCON:wisl1:1,2019-07-02T14:15:00Z,29.1144,-90.1840,2.491,5.72,11111222 
LUMCON,ioos:station:LUMCON:wisl1:1,2019-07-02T14:30:00Z,29.1144,-90.1840,2.492,5.85,11111222 
LUMCON,ioos:station:LUMCON:wisl1:1,2019-07-02T14:45:00Z,29.1144,-90.1840,2.495,5.51,11111222 
LUMCON,ioos:station:LUMCON:wisl1:1,2019-07-02T15:00:00Z,29.1144,-90.1840,2.497,5.84,11111222 
LUMCON,ioos:station:LUMCON:wisl1:1,2019-07-02T15:15:00Z,29.1144,-90.1840,2.504,5.79,11111222 
LUMCON,ioos:station:LUMCON:wisl1:1,2019-07-02T15:30:00Z,29.1144,-90.1840,2.504,5.95,11111222 
LUMCON,ioos:station:LUMCON:wisl1:1,2019-07-02T15:45:00Z,29.1144,-90.1840,2.499,4.79,11111222 
LUMCON,ioos:station:LUMCON:wisl1:1,2019-07-02T16:00:00Z,29.1144,-90.1840,2.49,5.19,11111222 
LUMCON,ioos:station:LUMCON:wisl1:1,2019-07-02T16:15:00Z,29.1144,-90.1840,2.485,5.02,11111222 
LUMCON,ioos:station:LUMCON:wisl1:1,2019-07-02T16:30:00Z,29.1144,-90.1840,2.483,4.45,11111222 
LUMCON,ioos:station:LUMCON:wisl1:1,2019-07-02T16:45:00Z,29.1144,-90.1840,2.474,5.03,11111222 
LUMCON,ioos:station:LUMCON:wisl1:1,2019-07-02T17:00:00Z,29.1144,-90.1840,2.472,4.73,11111222 
LUMCON,ioos:station:LUMCON:wisl1:1,2019-07-02T17:15:00Z,29.1144,-90.1840,2.469,5.47,11111222 
LUMCON,ioos:station:LUMCON:wisl1:1,2019-07-02T17:30:00Z,29.1144,-90.1840,2.459,4.84,11111222 
LUMCON,ioos:station:LUMCON:wisl1:1,2019-07-02T17:45:00Z,29.1144,-90.1840,2.449,5.36,11111222 
LUMCON,ioos:station:LUMCON:wisl1:1,2019-07-02T18:00:00Z,29.1144,-90.1840,2.429,5.58,11111222 
LUMCON,ioos:station:LUMCON:wisl1:1,2019-07-02T18:15:00Z,29.1144,-90.1840,2.408,5.72,11111222 
LUMCON,ioos:station:LUMCON:wisl1:1,2019-07-02T18:30:00Z,29.1144,-90.1840,2.372,5.87,11111222 
LUMCON,ioos:station:LUMCON:wisl1:1,2019-07-02T18:45:00Z,29.1144,-90.1840,2.357,5.83,11111222 
LUMCON,ioos:station:LUMCON:wisl1:1,2019-07-02T19:00:00Z,29.1144,-90.1840,2.347,5.88,11111222 
LUMCON,ioos:station:LUMCON:wisl1:1,2019-07-02T19:15:00Z,29.1144,-90.1840,2.327,5.85,11111222 
LUMCON,ioos:station:LUMCON:wisl1:1,2019-07-02T19:30:00Z,29.1144,-90.1840,2.315,5.78,11111222 
LUMCON,ioos:station:LUMCON:wisl1:1,2019-07-02T19:45:00Z,29.1144,-90.1840,2.28,5.78,11111222 
LUMCON,ioos:station:LUMCON:wisl1:1,2019-07-02T20:00:00Z,29.1144,-90.1840,2.231,5.82,11111222 
LUMCON,ioos:station:LUMCON:wisl1:1,2019-07-02T20:15:00Z,29.1144,-90.1840,2.227,5.87,11111222 
LUMCON,ioos:station:LUMCON:wisl1:1,2019-07-02T20:30:00Z,29.1144,-90.1840,2.201,5.88,11111222 
LUMCON,ioos:station:LUMCON:wisl1:1,2019-07-02T20:45:00Z,29.1144,-90.1840,2.2,5.89,11111222 
LUMCON,ioos:station:LUMCON:wisl1:1,2019-07-02T21:00:00Z,29.1144,-90.1840,2.191,5.88,11111222 
LUMCON,ioos:station:LUMCON:wisl1:1,2019-07-02T21:15:00Z,29.1144,-90.1840,2.172,6.02,11111222 
LUMCON,ioos:station:LUMCON:wisl1:1,2019-07-02T21:30:00Z,29.1144,-90.1840,2.155,5.99,11111222 
LUMCON,ioos:station:LUMCON:wisl1:1,2019-07-02T21:45:00Z,29.1144,-90.1840,2.145,5.96,11111222 
LUMCON,ioos:station:LUMCON:wisl1:1,2019-07-02T22:00:00Z,29.1144,-90.1840,2.116,6.12,11111222 
LUMCON,ioos:station:LUMCON:wisl1:1,2019-07-02T22:15:00Z,29.1144,-90.1840,2.089,6.28,11111222 
LUMCON,ioos:station:LUMCON:wisl1:1,2019-07-02T22:30:00Z,29.1144,-90.1840,2.074,6.29,11111222 
LUMCON,ioos:station:LUMCON:wisl1:1,2019-07-02T22:45:00Z,29.1144,-90.1840,2.067,6.23,11111222 
LUMCON,ioos:station:LUMCON:wisl1:1,2019-07-02T23:00:00Z,29.1144,-90.1840,2.044,6.37,11111222 
LUMCON,ioos:station:LUMCON:wisl1:1,2019-07-02T23:15:00Z,29.1144,-90.1840,2.037,6.31,11111222 
LUMCON,ioos:station:LUMCON:wisl1:1,2019-07-02T23:30:00Z,29.1144,-90.1840,2.022,6.44,11111222 
LUMCON,ioos:station:LUMCON:wisl1:1,2019-07-02T23:45:00Z,29.1144,-90.1840,2.012,6.37,11111222 
LUMCON,ioos:station:LUMCON:wisl1:1,2019-07-03T00:00:00Z,29.1144,-90.1840,2.006,6.36,11111222 
LUMCON,ioos:station:LUMCON:wisl1:1,2019-07-03T00:15:00Z,29.1144,-90.1840,1.991,6.43,11111222 
LUMCON,ioos:station:LUMCON:wisl1:1,2019-07-03T00:30:00Z,29.1144,-90.1840,1.982,6.23,11111222 
LUMCON,ioos:station:LUMCON:wisl1:1,2019-07-03T00:45:00Z,29.1144,-90.1840,1.976,6.39,11111222 
LUMCON,ioos:station:LUMCON:wisl1:1,2019-07-03T01:00:00Z,29.1144,-90.1840,1.973,6.27,11111222 
LUMCON,ioos:station:LUMCON:wisl1:1,2019-07-03T01:15:00Z,29.1144,-90.1840,1.98,6.26,11111222 
LUMCON,ioos:station:LUMCON:wisl1:1,2019-07-03T01:30:00Z,29.1144,-90.1840,1.975,6.17,11111222 
LUMCON,ioos:station:LUMCON:wisl1:1,2019-07-03T01:45:00Z,29.1144,-90.1840,1.976,6.09,11111222 
LUMCON,ioos:station:LUMCON:wisl1:1,2019-07-03T02:00:00Z,29.1144,-90.1840,1.984,5.96,11111222 
LUMCON,ioos:station:LUMCON:wisl1:1,2019-07-03T02:15:00Z,29.1144,-90.1840,1.987,5.95,11111222 
LUMCON,ioos:station:LUMCON:wisl1:1,2019-07-03T02:30:00Z,29.1144,-90.1840,1.985,5.89,11111222 
LUMCON,ioos:station:LUMCON:wisl1:1,2019-07-03T02:45:00Z,29.1144,-90.1840,1.988,5.75,11111222 
LUMCON,ioos:station:LUMCON:wisl1:1,2019-07-03T03:00:00Z,29.1144,-90.1840,1.991,5.46,11111222 
LUMCON,ioos:station:LUMCON:wisl1:1,2019-07-03T03:15:00Z,29.1144,-90.1840,1.997,5.57,11111222 
LUMCON,ioos:station:LUMCON:wisl1:1,2019-07-03T03:30:00Z,29.1144,-90.1840,1.993,5.6,11111222 
LUMCON,ioos:station:LUMCON:wisl1:1,2019-07-03T03:45:00Z,29.1144,-90.1840,2.006,5.49,11111222 
LUMCON,ioos:station:LUMCON:wisl1:1,2019-07-03T04:00:00Z,29.1144,-90.1840,2.014,5.47,11111222 
LUMCON,ioos:station:LUMCON:wisl1:1,2019-07-03T04:15:00Z,29.1144,-90.1840,2.023,5.36,11111222 
LUMCON,ioos:station:LUMCON:wisl1:1,2019-07-03T04:30:00Z,29.1144,-90.1840,2.038,5.08,11111222 
LUMCON,ioos:station:LUMCON:wisl1:1,2019-07-03T04:45:00Z,29.1144,-90.1840,2.045,5.38,11111222 
LUMCON,ioos:station:LUMCON:wisl1:1,2019-07-03T05:00:00Z,29.1144,-90.1840,2.051,5.34,11111222 
LUMCON,ioos:station:LUMCON:wisl1:1,2019-07-03T05:15:00Z,29.1144,-90.1840,2.072,4.94,11111222 
LUMCON,ioos:station:LUMCON:wisl1:1,2019-07-03T05:30:00Z,29.1144,-90.1840,2.09,5.32,11111222 
LUMCON,ioos:station:LUMCON:wisl1:1,2019-07-03T05:45:00Z,29.1144,-90.1840,2.108,5.43,11111222 
LUMCON,ioos:station:LUMCON:wisl1:1,2019-07-03T06:00:00Z,29.1144,-90.1840,2.122,5.4,11111222 
LUMCON,ioos:station:LUMCON:wisl1:1,2019-07-03T06:15:00Z,29.1144,-90.1840,2.14,5.32,11111222 
LUMCON,ioos:station:LUMCON:wisl1:1,2019-07-03T06:30:00Z,29.1144,-90.1840,2.151,5.08,11111222 
LUMCON,ioos:station:LUMCON:wisl1:1,2019-07-03T06:45:00Z,29.1144,-90.1840,2.171,5.21,11111222 
LUMCON,ioos:station:LUMCON:wisl1:1,2019-07-03T07:00:00Z,29.1144,-90.1840,2.195,5.38,11111222 
LUMCON,ioos:station:LUMCON:wisl1:1,2019-07-03T07:15:00Z,29.1144,-90.1840,2.195,4.8,11111222 
LUMCON,ioos:station:LUMCON:wisl1:1,2019-07-03T07:30:00Z,29.1144,-90.1840,2.208,5.31,11111222 
LUMCON,ioos:station:LUMCON:wisl1:1,2019-07-03T07:45:00Z,29.1144,-90.1840,2.209,5.3,11111222 
LUMCON,ioos:station:LUMCON:wisl1:1,2019-07-03T08:00:00Z,29.1144,-90.1840,2.219,5.16,11111222 
LUMCON,ioos:station:LUMCON:wisl1:1,2019-07-03T08:15:00Z,29.1144,-90.1840,2.239,5.11,11111222 
LUMCON,ioos:station:LUMCON:wisl1:1,2019-07-03T08:30:00Z,29.1144,-90.1840,2.244,4.81,11111222 
LUMCON,ioos:station:LUMCON:wisl1:1,2019-07-03T08:45:00Z,29.1144,-90.1840,2.255,4.39,11111222 
LUMCON,ioos:station:LUMCON:wisl1:1,2019-07-03T09:00:00Z,29.1144,-90.1840,2.266,3.87,11111222 
LUMCON,ioos:station:LUMCON:wisl1:1,2019-07-03T09:15:00Z,29.1144,-90.1840,2.279,5.67,11111222 
LUMCON,ioos:station:LUMCON:wisl1:1,2019-07-03T09:30:00Z,29.1144,-90.1840,2.291,5.23,11111222 
LUMCON,ioos:station:LUMCON:wisl1:1,2019-07-03T09:45:00Z,29.1144,-90.1840,2.309,5.54,11111222 
LUMCON,ioos:station:LUMCON:wisl1:1,2019-07-03T10:00:00Z,29.1144,-90.1840,2.327,5.71,11111222 
LUMCON,ioos:station:LUMCON:wisl1:1,2019-07-03T10:15:00Z,29.1144,-90.1840,2.333,5.41,11111222 
LUMCON,ioos:station:LUMCON:wisl1:1,2019-07-03T10:30:00Z,29.1144,-90.1840,2.349,4.48,11111222 
LUMCON,ioos:station:LUMCON:wisl1:1,2019-07-03T10:45:00Z,29.1144,-90.1840,2.362,5.28,11111222 
LUMCON,ioos:station:LUMCON:wisl1:1,2019-07-03T11:00:00Z,29.1144,-90.1840,2.377,4.87,11111222 
LUMCON,ioos:station:LUMCON:wisl1:1,2019-07-03T11:15:00Z,29.1144,-90.1840,2.385,4.9,11111222 
LUMCON,ioos:station:LUMCON:wisl1:1,2019-07-03T11:30:00Z,29.1144,-90.1840,2.405,3.69,11111222 
LUMCON,ioos:station:LUMCON:wisl1:1,2019-07-03T11:45:00Z,29.1144,-90.1840,2.415,5.1,11111222 
LUMCON,ioos:station:LUMCON:wisl1:1,2019-07-03T12:00:00Z,29.1144,-90.1840,2.419,5.0,11111222 
LUMCON,ioos:station:LUMCON:wisl1:1,2019-07-03T12:15:00Z,29.1144,-90.1840,2.438,4.91,11111222 
LUMCON,ioos:station:LUMCON:wisl1:1,2019-07-03T12:30:00Z,29.1144,-90.1840,2.444,5.14,11111222 
LUMCON,ioos:station:LUMCON:wisl1:1,2019-07-03T12:45:00Z,29.1144,-90.1840,2.448,4.64,11111222 
LUMCON,ioos:station:LUMCON:wisl1:1,2019-07-03T13:00:00Z,29.1144,-90.1840,2.459,5.0,11111222 
LUMCON,ioos:station:LUMCON:wisl1:1,2019-07-03T13:15:00Z,29.1144,-90.1840,2.473,4.98,11111222 
LUMCON,ioos:station:LUMCON:wisl1:1,2019-07-03T13:30:00Z,29.1144,-90.1840,2.474,4.76,11111222 
LUMCON,ioos:station:LUMCON:wisl1:1,2019-07-03T13:45:00Z,29.1144,-90.1840,2.479,4.27,11111222 
LUMCON,ioos:station:LUMCON:wisl1:1,2019-07-03T14:00:00Z,29.1144,-90.1840,2.487,4.51,11111222 
LUMCON,ioos:station:LUMCON:wisl1:1,2019-07-03T14:15:00Z,29.1144,-90.1840,2.493,4.78,11111222 
LUMCON,ioos:station:LUMCON:wisl1:1,2019-07-03T14:30:00Z,29.1144,-90.1840,2.502,3.51,11111222 
LUMCON,ioos:station:LUMCON:wisl1:1,2019-07-03T14:45:00Z,29.1144,-90.1840,2.506,4.1,11111222 
LUMCON,ioos:station:LUMCON:wisl1:1,2019-07-03T15:00:00Z,29.1144,-90.1840,2.508,3.66,11111222 
LUMCON,ioos:station:LUMCON:wisl1:1,2019-07-03T15:15:00Z,29.1144,-90.1840,2.512,3.98,11111222 